When you browse on this site, cookies collect data to enhance your experience and personalize the content and advertising you see.
Visit our Privacy Policy to learn more. By continuing to use the site, you agree to this use of cookies and data.
  • In Czech Republic
  • List of Countries
  • For 7 days
  • Water Temperature
  • Satellite Maps
  • Weather Map
  • Weather Widgets
  • user-avatar
    Login

    Hourly Weather Korobiec

    Today, 19 February, Tuesday

    Time Temperature Precipitation Wind Pressure Humidity
    00:00 0°C° 0 mm 4 mps 746 mmHg 93%
    01:00 0°C° 0 mm 4 mps 745 mmHg 93%
    02:00 0°C° 0 mm 4 mps 745 mmHg 94%
    03:00 0°C° 0 mm 4 mps 744 mmHg 94%
    04:00 -1°C° 0 mm 4 mps 743 mmHg 95%
    05:00 -1°C° 0 mm 4 mps 743 mmHg 95%
    06:00 -1°C° 0 mm 4 mps 742 mmHg 94%
    07:00 -1°C° 0 mm 4 mps 742 mmHg 94%
    08:00 -1°C° 0 mm 4 mps 741 mmHg 94%
    09:00 0°C° 0 mm 5 mps 741 mmHg 88%
    10:00 +1°C° 0 mm 5 mps 741 mmHg 82%
    11:00 +2°C° 0 mm 5 mps 740 mmHg 75%
    12:00 +3°C° 0 mm 5 mps 740 mmHg 71%
    13:00 +5°C° 0 mm 6 mps 739 mmHg 66%
    14:00 +7°C° 0 mm 6 mps 738 mmHg 61%
    15:00 +5°C° 0 mm 6 mps 738 mmHg 63%
    16:00 +6°C° 0 mm 5 mps 738 mmHg 64%
    17:00 +6°C° 0 mm 5 mps 738 mmHg 66%
    18:00 +5°C° 0.1 mm 5 mps 738 mmHg 72%
    19:00 +3°C° 0.1 mm 5 mps 738 mmHg 78%
    20:00 +3°C° 0.1 mm 5 mps 738 mmHg 84%
    21:00 +4°C° 0.4 mm 4 mps 737 mmHg 85%
    22:00 +3°C° 0.4 mm 4 mps 737 mmHg 85%
    23:00 +3°C° 0.4 mm 4 mps 737 mmHg 86%

    Tomorrow, 20 February, Wednesday

    Time Temperature Precipitation Wind Pressure Humidity
    00:00 +3°C° 0 mm 4 mps 737 mmHg 86%
    01:00 +2°C° 0 mm 5 mps 737 mmHg 87%
    02:00 +2°C° 0 mm 5 mps 737 mmHg 88%
    03:00 +2°C° 0 mm 6 mps 737 mmHg 87%
    04:00 +2°C° 0 mm 6 mps 737 mmHg 86%
    05:00 +2°C° 0 mm 7 mps 737 mmHg 85%
    06:00 +2°C° 0.1 mm 7 mps 737 mmHg 84%
    07:00 +1°C° 0.1 mm 6 mps 737 mmHg 83%
    08:00 +1°C° 0.1 mm 6 mps 737 mmHg 82%
    09:00 0°C° 0.1 mm 7 mps 737 mmHg 80%
    10:00 +2°C° 0.1 mm 7 mps 738 mmHg 78%
    11:00 +1°C° 0.1 mm 8 mps 738 mmHg 76%
    12:00 +1°C° 0 mm 8 mps 738 mmHg 77%
    13:00 +1°C° 0 mm 8 mps 738 mmHg 77%
    14:00 +1°C° 0 mm 8 mps 739 mmHg 77%
    15:00 +1°C° 0 mm 8 mps 739 mmHg 76%
    16:00 +1°C° 0 mm 8 mps 739 mmHg 76%
    17:00 0°C° 0 mm 9 mps 740 mmHg 75%
    18:00 -1°C° 0 mm 8 mps 740 mmHg 73%
    19:00 -2°C° 0 mm 7 mps 741 mmHg 72%
    20:00 -3°C° 0 mm 6 mps 742 mmHg 70%
    21:00 -4°C° 0 mm 6 mps 742 mmHg 70%
    22:00 -4°C° 0 mm 5 mps 743 mmHg 69%
    23:00 -4°C° 0 mm 5 mps 743 mmHg 69%

    Day after tomorrow, 21 February, Thursday

    Time Temperature Precipitation Wind Pressure Humidity
    00:00 -4°C° 0 mm 5 mps 744 mmHg 69%
    01:00 -4°C° 0 mm 5 mps 744 mmHg 68%
    02:00 -3°C° 0 mm 4 mps 744 mmHg 68%
    03:00 -4°C° 0 mm 4 mps 744 mmHg 67%
    04:00 -4°C° 0 mm 4 mps 745 mmHg 67%
    05:00 -4°C° 0 mm 4 mps 745 mmHg 67%
    06:00 -4°C° 0 mm 3 mps 745 mmHg 67%
    07:00 -4°C° 0 mm 3 mps 745 mmHg 67%
    08:00 -4°C° 0 mm 3 mps 745 mmHg 67%
    09:00 -2°C° 0 mm 3 mps 745 mmHg 64%
    10:00 -2°C° 0 mm 2 mps 745 mmHg 61%
    11:00 -1°C° 0 mm 2 mps 745 mmHg 58%
    12:00 -1°C° 0 mm 2 mps 745 mmHg 57%
    13:00 -1°C° 0 mm 2 mps 745 mmHg 55%
    14:00 +2°C° 0 mm 1 mps 745 mmHg 54%
    15:00 +1°C° 0 mm 1 mps 745 mmHg 55%
    16:00 +1°C° 0 mm 1 mps 745 mmHg 56%
    17:00 -1°C° 0 mm 2 mps 745 mmHg 57%
    18:00 -1°C° 0 mm 2 mps 745 mmHg 55%
    19:00 -2°C° 0 mm 3 mps 745 mmHg 53%
    20:00 -3°C° 0 mm 4 mps 745 mmHg 51%
    21:00 -4°C° 0 mm 4 mps 746 mmHg 53%
    22:00 -4°C° 0 mm 4 mps 746 mmHg 56%
    23:00 -4°C° 0 mm 4 mps 747 mmHg 59%

    22 February, Friday

    Time Temperature Precipitation Wind Pressure Humidity
    00:00 -5°C° 0 mm 4 mps 748 mmHg 59%
    01:00 -5°C° 0 mm 4 mps 748 mmHg 59%
    02:00 -5°C° 0 mm 4 mps 749 mmHg 59%
    03:00 -6°C° 0 mm 5 mps 750 mmHg 59%
    04:00 -7°C° 0 mm 5 mps 751 mmHg 60%
    05:00 -7°C° 0 mm 5 mps 752 mmHg 61%
    06:00 -8°C° 0 mm 5 mps 752 mmHg 61%
    07:00 -8°C° 0 mm 5 mps 753 mmHg 61%
    08:00 -10°C° 0 mm 5 mps 754 mmHg 62%
    09:00 -10°C° 0 mm 5 mps 755 mmHg 57%
    10:00 -8°C° 0 mm 5 mps 756 mmHg 52%
    11:00 -8°C° 0 mm 5 mps 757 mmHg 48%
    12:00 -7°C° 0 mm 4 mps 757 mmHg 44%
    13:00 -5°C° 0 mm 4 mps 758 mmHg 41%
    14:00 -4°C° 0 mm 3 mps 758 mmHg 37%
    15:00 -5°C° 0 mm 3 mps 758 mmHg 38%
    16:00 -5°C° 0 mm 3 mps 758 mmHg 38%
    17:00 -5°C° 0 mm 3 mps 758 mmHg 39%
    18:00 -5°C° 0 mm 3 mps 759 mmHg 40%
    19:00 -6°C° 0 mm 3 mps 759 mmHg 41%
    20:00 -6°C° 0 mm 3 mps 759 mmHg 43%
    21:00 -6°C° 0 mm 3 mps 759 mmHg 43%
    22:00 -7°C° 0 mm 3 mps 759 mmHg 43%
    23:00 -7°C° 0 mm 3 mps 759 mmHg 44%

    23 February, Saturday

    Time Temperature Precipitation Wind Pressure Humidity
    00:00 -7°C° 0 mm 3 mps 759 mmHg 47%
    01:00 -7°C° 0 mm 3 mps 759 mmHg 50%
    02:00 -7°C° 0 mm 3 mps 759 mmHg 53%
    03:00 -8°C° 0 mm 3 mps 759 mmHg 55%
    04:00 -8°C° 0 mm 3 mps 759 mmHg 58%
    05:00 -8°C° 0 mm 3 mps 759 mmHg 60%
    06:00 -8°C° 0 mm 3 mps 759 mmHg 62%
    07:00 -7°C° 0 mm 2 mps 759 mmHg 63%
    08:00 -7°C° 0 mm 2 mps 759 mmHg 65%
    09:00 -6°C° 0 mm 2 mps 759 mmHg 61%
    10:00 -6°C° 0 mm 2 mps 759 mmHg 57%
    11:00 -3°C° 0 mm 1 mps 759 mmHg 52%
    12:00 -2°C° 0 mm 1 mps 759 mmHg 49%
    13:00 -1°C° 0 mm 1 mps 759 mmHg 45%
    14:00 -1°C° 0 mm 1 mps 759 mmHg 42%
    15:00 -1°C° 0 mm 1 mps 758 mmHg 43%
    16:00 -3°C° 0 mm 2 mps 758 mmHg 44%
    17:00 -3°C° 0 mm 2 mps 758 mmHg 45%
    18:00 -4°C° 0.1 mm 2 mps 758 mmHg 54%
    19:00 -2°C° 0.1 mm 1 mps 758 mmHg 64%
    20:00 -3°C° 0.1 mm 1 mps 758 mmHg 74%
    21:00 -3°C° 0 mm 1 mps 758 mmHg 75%
    22:00 -3°C° 0 mm 1 mps 758 mmHg 76%
    23:00 -3°C° 0 mm 1 mps 758 mmHg 77%

    24 February, Sunday

    Time Temperature Precipitation Wind Pressure Humidity
    00:00 -3°C° 0 mm 1 mps 758 mmHg 78%
    01:00 -3°C° 0 mm 1 mps 758 mmHg 79%
    02:00 -3°C° 0 mm 1 mps 758 mmHg 79%
    03:00 -3°C° 0 mm 1 mps 758 mmHg 80%
    04:00 -3°C° 0 mm 1 mps 758 mmHg 81%
    05:00 -3°C° 0 mm 1 mps 758 mmHg 83%
    06:00 -3°C° 0 mm 1 mps 759 mmHg 83%
    07:00 -3°C° 0 mm 1 mps 759 mmHg 83%
    08:00 -3°C° 0 mm 1 mps 759 mmHg 83%
    09:00 -4°C° 0 mm 2 mps 759 mmHg 78%
    10:00 -3°C° 0 mm 2 mps 760 mmHg 73%
    11:00 -2°C° 0 mm 2 mps 760 mmHg 68%
    12:00 -1°C° 0 mm 2 mps 760 mmHg 66%
    13:00 +1°C° 0 mm 2 mps 760 mmHg 65%
    14:00 +2°C° 0 mm 2 mps 759 mmHg 63%
    15:00 +2°C° 0 mm 2 mps 759 mmHg 66%
    16:00 +1°C° 0 mm 2 mps 759 mmHg 70%
    17:00 +1°C° 0 mm 2 mps 759 mmHg 73%
    18:00 -1°C° 0 mm 2 mps 758 mmHg 77%
    19:00 -1°C° 0 mm 2 mps 758 mmHg 81%
    20:00 -2°C° 0 mm 2 mps 758 mmHg 85%
    21:00 -1°C° 0 mm 2 mps 758 mmHg 85%
    22:00 -1°C° 0 mm 3 mps 758 mmHg 85%
    23:00 -1°C° 0 mm 3 mps 758 mmHg 84%
    Show more